sat.trackr.live / text

‹ back to catalog

STARLINK-31004

NORAD 58528 · 2023-191W

PAYLOAD ACTIVE UNKNOWN

§ Identity

Operator
Country
US
Launch date
2023-12-07
Launch site
AFETR
Launch vehicle
Mass (kg)
RCS (m²)

Purposes: comms

External: N2YO · Heavens-Above · Gunter

§ Orbital elements

Epoch: 2026-05-25T01:36:07.727040Z

Period
94.27 min
Inclination
43.0035°
Eccentricity
0.0000914
Mean motion
15.27580143 rev/d
Perigee alt
482.4 km
Apogee alt
483.7 km
Semi-major
6,861.2 km
B*
7.5645e-5
RAAN
31.9696°
Arg perigee
273.6982°
Mean anomaly
86.3765°
Rev number
13,715

§ Raw data

STARLINK-310041 58528U 23191W   26145.06675610  .00001820  00000+0  75645-4 0  99942 58528  43.0035  31.9696 0000914 273.6982  86.3765 15.27580143137158

JSON: /api/v1/satellites/58528 · /tle

For live sub-satellite position, see the globe view (requires WebGL).

§ Visibility from observer

Set your observer location to see the next 7 days of passes ≥ 10°. The values pass through the URL so the page stays shareable.

No JS? Fill the form by hand. The geolocation button needs JavaScript.